Wind_Speed
13 13 12 12 12 12 11 9 7 6 5 3 3 2 2 3 4 4 5 4 4 5 5 5 6 6 6 6 7 7 8 8 9 9 10 10 11 11 12 12 12 12 12 12 12 12 12 11 11
14 14 14 14 13 13 12 11 10 8 6 5 4 3 4 4 5 6 6 6 6 6 7 7 7 7 7 8 8 9 9 9 10 10 11 11 12 13 13 13 13 14 13 13 14 13 13 13 13
15 15 15 15 14 14 14 12 11 9 8 7 6 6 5 6 6 7 7 7 7 8 8 8 8 8 8 9 9 10 10 10 11 12 12 13 13 14 14 15 15 15 15 15 15 15 15 14 14
16 16 16 16 16 15 15 13 12 11 9 9 8 7 7 7 7 7 7 8 8 9 9 10 9 9 9 10 10 11 11 12 12 13 14 14 15 15 16 16 16 16 16 17 17 16 16 16 15
17 17 17 17 17 16 16 14 13 13 11 10 9 8 8 9 8 8 9 9 10 10 11 11 11 11 10 11 11 12 13 13 14 14 15 16 16 17 17 17 18 18 18 18 18 18 18 17 17
17 18 18 18 18 18 17 15 14 14 13 12 10 10 10 9 9 9 10 10 11 12 12 12 11 11 12 12 13 13 14 15 15 15 16 16 17 18 18 18 19 19 20 19 19 20 19 19 19
19 18 19 19 19 19 18 17 16 15 14 12 11 11 10 10 10 10 11 11 12 12 12 12 13 13 13 13 14 15 15 16 16 16 17 18 18 19 19 19 19 20 20 20 20 20 20 20 20
20 19 19 20 20 20 19 18 16 15 14 13 13 12 12 11 12 13 13 13 13 13 14 14 14 14 14 14 14 15 16 16 17 17 18 18 19 19 20 20 20 21 22 22 22 21 21 21 21
21 20 20 20 21 21 20 19 17 16 15 14 14 13 13 13 13 13 13 13 13 14 15 15 14 14 14 14 15 16 16 17 17 17 19 19 20 20 21 21 22 23 23 23 23 23 23 22 21
22 21 21 21 22 22 21 20 18 17 16 15 14 13 13 13 14 14 13 13 14 15 15 14 14 14 15 16 16 17 18 18 19 19 20 20 21 22 22 22 23 24 24 25 24 24 24 24 24
22 22 22 22 22 22 22 21 20 19 18 17 16 14 14 13 13 14 14 14 14 14 14 14 14 15 16 17 18 18 19 19 19 19 20 21 22 22 23 23 23 24 24 25 26 26 26 25 25
22 23 23 22 22 21 21 21 21 20 20 18 17 16 15 15 14 14 15 14 14 14 14 16 16 16 17 18 19 19 19 20 20 20 21 22 22 23 23 23 23 24 25 25 26 27 26 26 25
23 22 22 22 21 21 22 21 22 21 20 18 17 16 15 14 14 14 15 15 15 15 16 17 17 17 18 19 19 20 20 20 21 22 23 23 22 23 23 23 23 24 25 25 26 27 26 26 26
23 23 23 22 22 22 23 22 21 19 18 17 16 16 15 14 14 15 15 15 16 15 16 17 17 18 18 19 20 21 21 21 22 23 23 23 23 23 23 24 24 25 25 25 26 27 27 27 28
23 23 24 23 23 23 23 22 21 19 17 17 16 16 16 14 14 15 15 15 16 17 17 17 18 18 19 20 21 22 22 22 22 22 22 23 24 25 25 24 25 26 25 26 26 26 28 28 27
23 23 23 23 23 23 23 22 21 20 18 17 17 17 15 15 14 15 15 16 16 17 18 18 19 19 19 21 22 23 23 23 23 23 23 24 24 25 25 25 25 26 27 26 26 27 27 28 27
23 23 23 23 23 23 23 21 20 19 19 18 17 16 16 15 15 15 16 16 17 17 18 18 18 19 20 21 22 22 23 23 23 23 23 24 25 25 25 24 25 26 27 27 27 27 28 29 29
22 23 23 23 23 22 22 20 19 19 18 17 16 17 17 16 16 16 16 17 18 18 18 19 19 20 20 21 23 23 23 23 24 24 24 24 24 25 25 25 26 26 28 28 28 29 28 29 29
22 22 22 22 23 23 23 21 20 19 17 17 16 16 16 17 16 17 17 18 19 20 20 20 20 21 22 22 23 23 23 23 24 25 25 25 25 25 26 27 27 28 28 29 29 29 29 30 30
20 21 21 22 23 24 23 22 21 20 18 16 16 16 17 17 17 17 19 20 21 21 21 21 21 22 23 23 23 23 22 23 24 25 25 26 25 26 26 27 28 29 29 30 30 30 30 30 30
19 19 20 21 21 22 23 22 21 19 17 17 17 17 17 17 18 18 19 20 21 22 22 23 23 23 23 22 23 23 23 24 25 26 26 26 26 27 27 28 29 30 30 30 30 30 30 30 31
18 18 18 19 20 20 21 20 18 18 17 17 17 18 17 17 18 19 19 20 21 22 22 22 23 24 24 24 24 24 24 24 25 25 26 27 28 28 28 29 29 30 30 31 30 30 30 29 29
16 18 18 17 19 19 19 21 19 19 18 18 18 18 18 19 19 19 19 20 21 21 22 22 23 23 22 22 23 24 24 25 25 26 26 27 28 28 29 29 29 29 30 30 30 29 28 28 29
15 16 18 18 19 19 18 19 19 18 18 18 18 18 18 19 19 20 19 20 20 21 21 21 22 22 22 22 23 24 24 25 25 25 26 27 28 28 29 29 29 29 29 29 29 28 28 28 28
14 15 17 18 18 19 19 19 18 17 18 18 18 18 18 19 20 19 19 20 21 22 21 21 21 21 22 22 23 24 24 24 25 25 26 27 28 29 29 28 28 28 28 27 27 27 28 28 28
13 14 16 16 16 17 18 18 17 17 18 18 18 18 19 19 19 19 20 21 22 22 22 21 21 22 22 23 24 24 24 23 24 25 26 26 27 28 28 28 29 28 27 26 26 26 27 27 26
15 16 17 17 18 18 17 17 16 17 18 18 18 18 18 18 18 18 20 21 22 22 22 22 20 20 21 23 23 23 23 23 24 24 25 26 26 26 26 26 26 26 26 25 25 25 25 25 25
16 16 17 18 19 18 17 16 16 16 18 19 18 18 18 18 18 19 21 20 20 21 20 20 19 19 20 21 22 23 23 23 24 25 25 25 24 24 25 24 24 23 23 23 23 23 23 23 23
17 17 18 19 19 19 18 16 17 16 16 17 18 17 17 18 19 20 20 19 19 20 20 18 18 19 19 20 22 22 23 23 23 23 23 22 22 23 23 23 22 22 22 22 21 21 21 22 22
18 18 18 19 19 19 19 18 17 17 16 17 17 17 17 17 18 19 19 18 18 19 18 18 18 19 19 20 22 22 22 22 22 22 22 22 22 22 22 22 22 22 22 21 21 20 20 21 21
Wind_Direction
223 224 224 221 220 220 218 218 221 223 221 220 216 249 304 317 324 323 321 309 298 299 297 292 294 296 302 307 309 310 310 309 309 310 310 308 308 307 306 304 305 305 304 305 305 305 304 303 304
225 224 224 223 221 220 222 222 225 229 227 231 237 260 286 298 311 313 311 308 298 294 293 288 288 292 298 302 303 304 305 304 303 302 303 302 302 301 300 299 300 301 301 301 300 300 299 298 298
226 223 223 223 222 223 227 228 228 236 238 242 254 266 287 292 295 299 300 298 294 289 288 285 285 290 295 295 297 298 299 299 300 298 297 297 298 298 297 296 296 297 297 297 297 296 295 294 293
225 224 224 224 223 225 231 233 230 231 240 248 258 275 287 292 295 294 294 292 290 288 284 281 280 285 290 290 293 295 296 296 296 295 293 293 294 294 294 293 292 292 293 293 293 292 291 290 289
225 224 225 224 225 227 231 233 234 235 244 251 259 273 282 286 294 293 288 284 281 281 279 278 280 285 289 290 289 292 294 294 293 292 291 291 291 291 291 291 288 287 287 289 290 289 289 287 285
224 225 225 225 226 229 232 236 237 240 248 251 255 272 283 283 291 290 285 281 276 278 277 278 279 281 284 286 288 290 291 292 292 290 290 290 290 288 287 288 288 287 285 286 287 287 286 285 283
224 224 224 225 227 232 235 238 241 243 250 256 265 270 282 291 292 289 283 277 275 275 275 277 278 282 283 286 288 288 290 290 289 289 289 289 289 288 285 284 285 286 285 285 286 286 283 282 282
223 223 223 225 228 232 237 242 247 249 256 262 270 274 283 291 293 289 280 275 275 274 274 276 279 280 283 284 287 288 290 291 290 290 290 290 288 288 285 282 282 283 283 283 284 283 283 281 281
222 222 223 226 228 232 239 244 248 253 259 266 273 279 285 286 288 286 279 277 278 274 274 278 279 280 282 284 286 287 289 290 290 290 289 289 287 286 284 281 280 280 280 280 281 281 281 279 280
222 222 223 226 230 234 239 244 249 256 261 269 272 276 279 284 286 286 286 282 281 278 275 280 282 280 281 284 285 285 287 288 288 289 288 287 286 283 280 282 281 280 278 276 278 279 279 278 276
220 221 225 229 234 237 242 246 251 256 261 267 270 274 275 281 287 284 286 280 279 279 276 277 280 280 280 283 285 286 286 287 286 287 288 286 286 286 281 281 282 280 277 275 276 277 277 276 276
219 221 227 233 238 239 243 247 252 257 263 268 274 274 273 281 282 282 282 282 279 277 273 273 275 278 280 282 284 286 286 287 286 287 286 288 286 286 284 282 282 282 280 276 275 275 275 273 273
219 221 228 235 239 242 245 250 254 259 261 265 272 275 277 280 281 282 281 280 279 277 273 272 274 278 280 281 283 284 286 286 287 288 288 287 286 286 284 282 282 281 280 278 276 275 275 274 273
221 225 231 235 240 244 245 249 254 259 263 268 271 273 275 275 279 280 277 281 279 275 272 271 274 278 281 282 284 285 285 286 288 289 288 287 286 287 286 284 283 282 282 281 277 275 274 275 275
223 228 232 238 243 245 246 248 252 257 264 269 272 274 275 276 279 279 278 280 278 278 276 272 272 277 281 282 284 285 284 285 288 290 290 289 288 286 286 285 284 282 282 283 281 278 275 275 273
228 231 235 240 245 247 247 249 251 257 260 264 269 273 276 281 282 280 277 277 280 282 278 273 273 276 279 283 284 285 286 287 287 288 290 288 288 287 286 286 284 283 283 283 281 279 276 275 273
230 235 239 243 247 249 248 250 252 257 262 265 269 274 277 279 280 281 281 281 283 285 281 279 279 280 281 285 287 288 288 287 287 287 289 288 287 288 286 286 286 285 283 283 281 278 277 275 273
234 239 243 247 248 250 252 253 259 260 262 265 268 272 274 275 277 282 284 283 284 285 282 281 284 284 283 285 286 288 289 288 288 287 289 289 287 287 286 286 286 286 284 284 281 278 276 275 273
237 241 244 246 248 250 253 256 261 259 264 266 270 275 276 280 282 282 284 283 284 285 284 285 287 288 286 285 286 286 288 287 286 287 288 289 288 288 287 286 286 286 284 283 283 278 276 275 273
241 244 245 245 249 253 256 260 261 262 263 267 272 275 279 281 282 282 283 287 288 286 284 288 290 289 287 286 285 284 287 287 288 288 289 289 289 289 289 289 287 285 284 284 283 280 277 275 274
241 243 243 244 250 256 259 260 263 266 266 269 273 275 278 280 282 286 287 289 290 290 289 290 290 290 286 285 284 287 287 286 288 289 289 289 290 291 291 291 288 286 285 285 283 281 279 276 273
242 242 247 250 249 254 259 262 260 265 268 270 276 277 277 280 282 286 288 290 291 292 293 292 291 290 286 284 287 288 288 288 289 290 290 290 291 293 293 292 288 287 286 285 283 282 280 277 275
242 245 249 253 254 258 262 265 264 267 269 271 274 276 278 280 283 285 287 289 292 293 293 293 292 289 286 287 288 289 289 288 289 290 291 293 294 294 294 293 290 288 287 286 283 282 280 277 276
246 247 250 254 257 259 262 266 268 271 272 274 275 277 280 281 282 285 286 289 292 296 294 292 291 289 288 290 291 290 289 289 289 290 291 293 294 295 294 294 292 291 290 288 285 283 281 280 277
246 250 254 256 257 262 263 267 271 270 272 276 277 278 281 284 283 283 285 288 292 295 292 293 293 291 290 293 294 291 291 291 290 290 291 293 295 296 295 294 293 292 291 289 288 285 282 281 279
247 254 260 264 266 267 266 269 273 275 277 278 278 278 283 284 282 283 285 290 292 292 291 292 292 292 294 297 297 295 294 296 296 294 294 295 297 297 296 295 294 292 291 289 287 287 284 282 279
248 253 260 266 270 274 273 276 278 279 280 278 280 280 282 283 282 286 289 291 291 289 289 289 292 294 296 297 297 296 295 297 298 298 297 297 298 300 301 299 297 295 294 292 291 290 287 284 280
252 256 260 264 271 276 277 282 287 284 281 278 280 281 280 281 283 287 290 290 290 289 288 290 294 297 299 299 299 297 296 298 298 298 300 300 301 303 304 302 301 300 299 297 293 288 286 284 282
258 262 264 267 270 275 280 285 288 289 284 282 282 282 283 282 284 287 288 289 290 291 293 293 296 299 301 303 303 302 302 303 301 302 302 302 305 306 305 302 301 300 300 298 295 291 287 285 283
267 266 267 267 270 275 281 286 286 288 287 285 285 285 283 284 286 286 286 287 290 293 294 297 299 303 306 308 308 306 307 307 306 305 303 304 304 306 306 303 300 300 299 296 295 293 290 288 285
Height
5884 5885 5887 5889 5891 5892 5892 5893 5894 5895 5896 5897 5898 5898 5898 5899 5900 5903 5901 5900 5900 5900 5900 5900 5900 5900 5899 5899 5898 5898 5898 5898 5898 5898 5897 5897 5897 5897 5897 5897 5897 5896 5896 5895 5895 5895 5894 5894 5893
5883 5884 5886 5888 5889 5890 5891 5892 5893 5894 5896 5896 5896 5897 5897 5898 5898 5899 5899 5899 5899 5899 5899 5899 5899 5899 5898 5898 5897 5897 5897 5897 5896 5896 5896 5896 5896 5896 5895 5895 5895 5894 5894 5894 5893 5893 5893 5892 5892
5881 5883 5885 5886 5887 5889 5890 5891 5892 5893 5894 5895 5895 5895 5896 5896 5897 5897 5897 5898 5898 5898 5898 5898 5898 5897 5897 5896 5896 5896 5895 5895 5895 5895 5894 5894 5894 5894 5893 5893 5893 5892 5892 5891 5891 5891 5890 5890 5890
5879 5881 5883 5885 5886 5887 5888 5890 5891 5892 5893 5893 5894 5894 5895 5895 5896 5896 5896 5896 5896 5897 5897 5897 5896 5896 5895 5894 5894 5894 5893 5893 5893 5892 5892 5892 5892 5891 5891 5891 5890 5890 5889 5889 5888 5888 5888 5887 5887
5877 5879 5881 5882 5884 5885 5887 5888 5889 5890 5891 5892 5892 5893 5893 5894 5894 5894 5894 5895 5895 5895 5895 5895 5894 5894 5893 5893 5892 5892 5892 5891 5891 5890 5890 5889 5889 5889 5888 5888 5887 5887 5886 5886 5885 5885 5885 5884 5884
5875 5877 5879 5880 5882 5883 5885 5886 5887 5889 5889 5890 5890 5891 5891 5892 5892 5893 5893 5893 5893 5893 5893 5892 5892 5892 5891 5891 5890 5890 5889 5889 5888 5888 5887 5887 5886 5886 5885 5885 5884 5884 5883 5883 5882 5882 5881 5881 5880
5873 5874 5876 5878 5879 5881 5883 5884 5886 5887 5887 5888 5888 5889 5889 5890 5890 5890 5890 5890 5891 5890 5890 5890 5890 5890 5889 5889 5888 5888 5887 5886 5886 5885 5884 5883 5883 5882 5882 5882 5881 5881 5880 5879 5879 5878 5877 5877 5877
5869 5872 5873 5875 5877 5879 5880 5882 5883 5885 5885 5885 5886 5887 5887 5887 5887 5887 5887 5887 5888 5888 5888 5888 5887 5887 5887 5886 5886 5885 5884 5884 5883 5882 5881 5880 5880 5879 5879 5878 5877 5877 5876 5875 5875 5874 5874 5873 5873
5867 5870 5871 5873 5875 5877 5878 5880 5881 5882 5883 5883 5884 5885 5885 5885 5885 5884 5884 5884 5885 5885 5885 5885 5884 5884 5884 5883 5883 5882 5881 5880 5879 5878 5878 5877 5876 5875 5875 5874 5873 5872 5872 5871 5870 5870 5869 5869 5869
5864 5866 5869 5871 5872 5874 5876 5877 5879 5880 5881 5881 5881 5882 5882 5882 5882 5882 5882 5882 5882 5882 5882 5882 5882 5881 5881 5880 5880 5879 5878 5877 5876 5875 5874 5873 5872 5871 5870 5869 5869 5868 5867 5866 5866 5865 5865 5865 5864
5861 5864 5866 5867 5869 5871 5873 5875 5876 5877 5878 5879 5879 5880 5880 5879 5879 5880 5879 5879 5879 5879 5878 5878 5878 5878 5877 5877 5876 5876 5875 5874 5872 5871 5870 5869 5868 5867 5866 5865 5864 5863 5862 5862 5861 5861 5860 5860 5859
5859 5861 5863 5865 5867 5869 5870 5872 5873 5875 5876 5876 5877 5877 5877 5877 5877 5876 5876 5876 5876 5875 5875 5875 5875 5874 5874 5873 5872 5872 5871 5870 5868 5867 5866 5865 5864 5862 5861 5861 5859 5858 5857 5857 5856 5856 5855 5855 5854
5856 5858 5860 5862 5864 5866 5868 5869 5871 5872 5872 5873 5873 5874 5874 5874 5874 5873 5873 5872 5872 5872 5871 5871 5871 5871 5870 5869 5869 5868 5867 5865 5864 5863 5862 5860 5859 5858 5857 5855 5854 5853 5852 5851 5850 5850 5850 5849 5849
5853 5856 5858 5860 5862 5864 5865 5867 5868 5869 5869 5870 5870 5870 5871 5870 5870 5870 5869 5869 5868 5868 5868 5868 5867 5867 5866 5866 5865 5864 5862 5861 5860 5858 5857 5855 5854 5853 5851 5850 5849 5848 5846 5845 5845 5844 5844 5844 5843
5850 5853 5856 5857 5859 5860 5862 5864 5865 5866 5866 5867 5867 5867 5867 5867 5867 5867 5866 5865 5865 5865 5864 5864 5863 5863 5862 5861 5860 5859 5858 5856 5855 5854 5852 5850 5849 5847 5846 5844 5843 5842 5841 5839 5838 5838 5837 5837 5837
5848 5851 5853 5855 5856 5857 5861 5861 5861 5862 5863 5864 5864 5864 5863 5863 5863 5863 5863 5862 5861 5861 5861 5860 5859 5858 5858 5857 5855 5854 5853 5851 5850 5848 5846 5845 5843 5841 5840 5839 5837 5836 5835 5834 5832 5831 5831 5830 5830
5845 5847 5849 5852 5853 5854 5856 5858 5858 5859 5859 5860 5860 5860 5860 5860 5860 5859 5859 5858 5857 5857 5856 5855 5855 5854 5853 5852 5851 5849 5848 5846 5845 5843 5841 5839 5837 5836 5834 5833 5831 5830 5829 5827 5826 5825 5824 5823 5823
5843 5845 5847 5849 5850 5851 5853 5855 5856 5855 5856 5856 5857 5857 5857 5857 5856 5855 5855 5854 5854 5853 5852 5851 5850 5849 5848 5847 5845 5844 5842 5841 5839 5837 5836 5834 5832 5830 5828 5827 5825 5823 5822 5821 5819 5818 5817 5816 5816
5840 5842 5844 5846 5847 5848 5849 5851 5852 5852 5853 5853 5853 5853 5853 5852 5851 5851 5851 5850 5850 5848 5847 5846 5845 5844 5843 5842 5840 5839 5837 5835 5834 5832 5830 5828 5826 5824 5822 5820 5818 5816 5815 5813 5812 5810 5809 5808 5808
5838 5840 5842 5843 5843 5845 5846 5847 5848 5849 5850 5850 5850 5850 5850 5849 5848 5847 5847 5846 5845 5844 5843 5842 5840 5839 5838 5836 5834 5833 5831 5829 5828 5826 5824 5822 5820 5818 5815 5813 5811 5809 5807 5805 5804 5802 5801 5800 5800
5836 5837 5839 5840 5840 5841 5842 5844 5845 5846 5847 5847 5847 5847 5846 5845 5844 5844 5843 5842 5841 5839 5838 5837 5835 5833 5832 5830 5829 5827 5826 5824 5822 5820 5818 5816 5814 5811 5809 5806 5803 5801 5799 5797 5795 5794 5793 5792 5791
5833 5834 5835 5836 5837 5838 5839 5840 5842 5842 5843 5843 5843 5843 5842 5842 5841 5840 5839 5837 5836 5835 5832 5831 5830 5828 5826 5825 5823 5822 5820 5818 5816 5814 5812 5809 5807 5804 5802 5799 5796 5794 5791 5789 5787 5785 5784 5783 5783
5831 5831 5832 5833 5834 5835 5835 5836 5839 5838 5839 5839 5839 5838 5838 5837 5836 5835 5834 5833 5831 5829 5827 5826 5825 5823 5821 5819 5818 5816 5814 5812 5810 5808 5805 5802 5800 5797 5794 5791 5788 5786 5784 5781 5779 5777 5776 5775 5775
5828 5829 5829 5830 5831 5832 5833 5833 5834 5834 5835 5835 5834 5834 5833 5833 5832 5830 5829 5828 5826 5824 5823 5821 5820 5818 5816 5814 5812 5810 5808 5806 5803 5801 5798 5796 5793 5790 5787 5784 5781 5779 5776 5774 5771 5770 5768 5768 5767
5826 5827 5828 5827 5828 5829 5829 5829 5831 5830 5831 5830 5830 5830 5829 5828 5827 5826 5825 5824 5822 5820 5818 5816 5815 5813 5811 5809 5806 5804 5801 5799 5796 5794 5792 5789 5786 5783 5780 5777 5774 5772 5769 5766 5764 5762 5761 5760 5759
5823 5825 5826 5826 5826 5826 5826 5826 5828 5827 5826 5826 5826 5825 5824 5823 5822 5821 5820 5818 5817 5815 5812 5811 5809 5808 5805 5803 5801 5798 5796 5793 5791 5788 5785 5782 5779 5776 5773 5770 5767 5765 5762 5759 5757 5755 5753 5752 5751
5821 5821 5823 5823 5822 5823 5823 5824 5824 5823 5822 5822 5821 5821 5820 5819 5818 5817 5815 5813 5812 5809 5807 5806 5804 5802 5800 5797 5795 5792 5790 5787 5785 5782 5779 5776 5773 5770 5766 5763 5760 5757 5755 5753 5750 5748 5746 5745 5744
5818 5819 5819 5819 5819 5819 5819 5820 5820 5819 5818 5818 5817 5816 5815 5814 5813 5812 5811 5809 5807 5805 5802 5800 5799 5797 5794 5792 5789 5786 5784 5781 5778 5776 5773 5770 5767 5763 5760 5757 5754 5751 5749 5746 5744 5742 5740 5739 5737
5815 5815 5815 5815 5816 5816 5815 5818 5816 5815 5814 5813 5813 5812 5811 5810 5808 5807 5806 5804 5803 5801 5798 5796 5794 5792 5789 5787 5784 5781 5778 5775 5773 5770 5767 5764 5761 5758 5755 5751 5749 5746 5743 5741 5739 5737 5735 5733 5732
5811 5811 5811 5812 5812 5811 5811 5815 5811 5811 5809 5808 5808 5807 5806 5805 5804 5802 5801 5799 5798 5796 5794 5792 5790 5787 5785 5782 5779 5776 5772 5770 5767 5765 5762 5758 5755 5753 5750 5746 5744 5741 5738 5736 5733 5731 5729 5728 5726